EHI
0 0 0 0 0 0 0 0 0 0 0 0 0 0 0 0 0 0 0 0 0 0 0 0 0 0 0 0 0 0 0 0 0 0 0 0 0 0 0 0 0 0 0 0 0 0 0 0 0
0 0 0 0 0 0 0 0 0 0 0 0 0 0 0 0 0 0 0 0 0 0 0 0 0 0 0 0 0 0 0 0 0 0 0 0 0 0 0 0 0 0 0 0 0 0 0 0 0
0 0 0 0 0 0 0 0 0 0 0 0 0 0 0 0 0 0 0 0 0 0 0 0 0 0 0 0 0 0 0 0 0 0 0 0 0 0 0 0 0 0 0 0 0 0 0 0 0
0 0 0 0 0 0 0 0 0 0 0 0 0 0 0 0 0 0 0 0 0 0 0 0 0 0 0 0 0 0 0 0 0 0 0 0 0 0 0 0 0 0 0 0 0 0 0 0 0
0 0 0 0 0 0 0 0 0 0 0 0 0 0 0 0 0 0 0 0 0 0 0 0 0 0 0 0 0 0 0 0 0 0 0 0 0 0 0 0 0 0 0 0 0 0 0 0 0
0 0 0 0 0 0 0 0 0 0 0 0 0 0 0 0 0 0 0 0 0 0 0 0 0 0 0 0 0 0 0 0 0 0 0 0 0 0 0 0 0 0 0 0 0 0 0 0 0
0 0 0 0 0 0 0 0 0 0 0 0 0 0 1 2 1 0 0 0 0 0 0 0 0 0 0 0 0 0 0 0 0 0 0 1 0 0 0 0 0 0 0 0 0 0 0 0 0
0 0 0 0 0 0 0 0 0 0 0 0 0 0 6 10 6 0 0 0 0 0 0 0 0 0 0 0 0 0 0 0 0 0 1 2 1 0 0 0 0 0 0 0 0 0 0 0 0
0 0 0 0 0 0 0 0 0 0 0 0 0 1 12 21 10 0 0 0 0 0 0 0 0 0 0 0 0 0 0 0 0 0 1 2 1 0 0 0 0 0 0 0 0 0 0 0 0
0 0 0 0 0 0 0 0 0 0 0 0 2 9 20 20 8 0 0 0 0 0 0 0 0 0 0 0 0 0 0 0 0 0 0 0 0 0 0 0 0 0 0 0 0 0 0 0 0
0 0 0 0 0 0 0 0 0 0 0 0 6 18 21 11 3 0 0 0 0 0 0 0 0 0 0 0 0 0 0 0 0 0 0 0 0 0 0 0 0 0 0 0 0 0 0 0 0
0 0 0 0 0 0 0 1 2 1 0 1 8 17 13 4 0 0 0 0 0 0 0 0 0 0 0 0 0 0 0 0 0 0 0 0 0 0 0 0 0 0 0 0 0 0 0 0 0
0 0 0 0 0 0 0 3 6 5 2 1 6 8 4 1 0 0 0 0 0 0 0 0 0 0 0 0 0 0 0 0 0 0 0 0 0 0 0 0 0 0 0 0 0 0 0 0 0
0 0 0 0 0 0 0 3 8 9 4 3 5 4 2 0 0 0 1 1 1 0 0 0 0 0 0 0 0 0 0 0 0 0 0 0 0 0 0 0 0 0 0 0 0 0 0 0 0
0 0 0 0 0 0 0 2 5 5 5 9 14 11 5 2 1 1 3 4 2 0 0 0 0 0 0 0 0 0 0 0 0 0 0 0 0 0 0 0 0 0 0 0 0 0 0 0 0
0 0 0 0 0 0 0 0 1 1 5 14 22 20 16 10 4 3 6 7 3 2 3 2 0 0 0 0 0 0 0 0 0 0 0 0 0 0 0 0 0 0 0 0 0 0 0 0 0
0 0 0 0 0 0 0 0 0 0 6 17 26 31 29 20 9 6 7 6 3 5 8 4 0 0 0 0 2 4 6 5 4 4 3 1 0 0 0 0 0 0 0 0 0 0 0 0 0
0 0 0 0 0 0 0 0 1 2 8 21 29 33 33 23 14 10 7 6 6 9 9 5 3 4 6 6 8 11 12 9 6 7 6 2 0 0 0 0 0 0 0 0 0 0 0 0 0
0 0 0 0 0 0 0 1 5 11 20 33 37 33 28 21 13 10 11 17 28 32 25 16 12 14 17 17 17 17 11 5 4 4 8 12 13 8 3 0 0 0 0 0 0 0 1 1 0
0 0 0 0 0 0 0 2 7 14 25 34 38 38 39 34 24 14 15 31 48 51 39 25 19 19 20 18 20 20 12 3 1 1 10 26 38 35 20 5 0 0 0 0 0 1 3 2 1
0 0 0 0 0 0 0 1 3 7 12 16 25 41 51 48 37 22 16 25 34 34 24 16 14 15 12 8 12 16 13 9 6 4 10 24 47 62 49 18 2 0 0 0 0 2 4 4 3
0 0 0 0 0 0 0 0 0 0 0 0 10 29 38 32 26 19 12 8 8 6 4 3 5 6 3 1 2 6 8 9 9 7 7 14 37 62 55 26 7 1 1 0 0 2 5 6 5
0 0 0 0 0 0 0 0 0 0 0 0 4 11 13 9 6 6 4 1 0 0 0 0 1 1 0 0 0 1 2 4 4 5 5 9 24 36 32 20 11 6 5 2 1 2 7 8 6
0 0 0 0 0 0 0 0 0 0 0 0 0 1 2 2 1 0 0 0 0 0 0 0 0 0 0 0 0 0 0 0 0 1 2 4 8 11 10 8 10 11 8 4 1 2 5 6 4
0 0 0 0 0 0 0 0 0 0 0 1 0 0 0 0 0 0 0 0 0 0 0 0 0 0 0 0 0 0 0 0 0 0 0 0 0 0 1 2 6 9 6 2 1 1 2 2 1
0 0 0 0 0 0 0 0 0 0 0 0 0 0 0 0 0 0 0 0 0 0 0 0 0 0 0 0 0 0 0 0 0 0 0 0 0 0 0 0 2 3 2 0 0 0 0 0 0
0 0 0 0 0 0 0 0 0 0 0 0 0 0 0 0 0 0 0 0 0 0 0 0 0 0 0 0 0 0 0 0 0 0 0 0 0 0 0 0 0 0 0 0 0 0 0 0 0
0 0 0 0 0 0 0 0 0 0 0 0 0 0 0 0 0 0 0 0 0 0 0 0 0 0 0 0 0 0 0 0 0 0 0 0 0 0 0 0 0 0 0 0 0 0 0 0 0
0 0 0 0 0 0 0 0 0 0 0 0 0 0 0 0 0 0 0 0 0 0 0 0 0 0 0 0 0 0 0 0 0 0 0 0 0 0 0 0 0 0 0 0 0 0 0 0 0
0 0 0 0 0 0 0 0 0 0 0 0 0 0 0 0 0 0 0 0 0 0 0 0 0 0 0 0 0 0 0 0 0 0 0 0 0 0 0 0 0 0 0 0 0 0 0 0 0
Wind_Speed
8 8 5 4 7 6 3 4 2 4 5 3 5 3 4 8 6 5 10 11 13 13 15 15 14 13 11 11 11 12 13 14 15 14 13 12 11 10 10 10 9 9 8 7 6 6 8 7 8
6 5 6 7 7 2 5 4 4 4 6 6 6 2 3 7 7 10 12 12 13 12 13 14 15 13 12 11 10 11 12 13 14 13 13 12 11 10 10 9 9 8 8 7 5 5 7 8 8
7 7 7 6 5 4 4 5 5 7 8 5 3 3 4 6 9 11 11 13 12 10 10 14 14 14 12 11 11 11 11 12 12 12 12 12 11 10 10 8 8 8 7 5 5 5 5 6 8
7 8 8 8 3 3 2 6 6 8 6 3 3 7 6 7 10 11 14 13 12 10 9 14 11 12 11 11 12 12 11 11 11 11 11 10 10 9 9 7 6 7 6 5 5 4 4 4 6
8 8 9 9 5 2 2 6 7 7 5 6 4 7 8 9 10 13 14 12 11 10 10 13 10 11 10 8 8 12 12 11 10 9 8 7 7 7 7 6 5 4 4 4 3 2 3 4 4
8 7 10 10 6 4 4 7 9 7 6 6 5 10 10 10 12 13 14 13 11 10 10 13 11 11 10 9 7 8 10 10 10 9 8 6 6 6 6 6 5 4 3 2 2 2 1 3 4
11 9 13 10 6 7 7 8 11 8 8 8 7 9 10 10 12 13 13 11 10 9 8 11 11 11 10 10 9 9 9 9 9 8 8 7 6 6 6 5 5 5 5 4 3 4 4 4 4
7 9 13 12 10 7 4 7 9 10 7 4 5 5 10 13 13 14 13 10 9 8 7 8 9 10 9 9 9 8 9 9 9 9 9 8 7 8 8 6 6 5 5 5 6 7 6 5 5
6 10 13 12 8 4 5 10 8 5 6 6 4 1 10 20 17 16 13 11 10 9 8 8 8 8 8 8 9 7 6 5 6 8 10 8 9 9 9 8 4 4 6 7 8 9 8 8 10
10 11 9 2 4 6 5 11 12 10 11 10 8 7 15 20 19 18 16 15 13 12 11 9 9 9 8 6 7 8 7 7 7 6 7 8 6 3 4 1 5 6 7 7 8 8 8 9 10
11 12 2 2 2 7 5 9 10 12 12 12 11 14 19 18 17 16 16 15 14 12 11 10 8 8 7 6 5 5 5 5 5 6 6 5 3 4 4 5 5 7 7 7 7 7 7 6 6
9 10 5 3 2 6 4 8 10 10 4 3 9 16 19 18 17 16 14 13 13 12 12 11 10 8 7 6 5 6 5 5 5 6 7 5 5 5 5 3 3 3 5 4 3 3 3 4 6
12 7 8 8 7 6 6 8 11 10 8 6 11 14 17 17 16 15 14 13 12 12 12 12 11 10 9 8 6 7 6 6 6 6 7 8 6 5 5 5 5 5 5 4 5 2 4 4 5
7 9 8 7 6 3 6 5 9 8 10 7 9 13 15 16 15 14 13 12 12 13 13 13 13 12 10 9 9 7 6 6 6 6 8 9 7 6 6 6 7 5 5 7 4 4 5 5 5
5 10 12 11 7 4 6 8 10 8 7 7 7 9 10 12 14 13 12 11 11 10 11 12 12 12 12 11 10 8 7 7 7 7 8 9 9 8 7 6 5 5 5 7 6 7 6 6 7
11 12 14 13 10 6 8 12 11 6 4 4 5 6 8 10 11 11 9 9 10 9 9 10 10 12 12 10 8 7 6 6 7 7 7 9 10 10 8 7 7 6 4 5 5 4 8 6 4
13 14 15 10 7 6 11 13 7 9 1 4 4 5 6 7 9 9 9 9 10 9 8 9 11 11 11 9 8 6 5 4 6 6 7 7 10 11 9 9 6 6 6 5 4 4 7 4 4
9 13 10 12 9 10 14 15 4 7 5 5 5 5 5 6 6 7 7 7 7 8 8 9 9 8 6 4 4 3 3 7 11 10 11 11 10 11 9 8 9 9 7 4 5 4 5 5 4
8 8 9 6 3 7 9 12 7 3 1 4 5 6 6 6 7 6 5 5 6 7 8 9 9 7 6 4 5 4 3 3 5 9 13 14 14 13 9 8 9 9 8 6 6 5 5 6 4
9 10 10 4 2 6 6 6 2 3 0 2 3 4 6 9 9 9 7 5 5 5 3 2 3 3 4 5 7 7 6 9 12 14 18 12 12 12 10 9 8 9 8 8 7 6 5 4 6
9 11 10 9 6 6 6 10 11 6 4 5 5 6 7 8 9 9 8 6 8 4 1 0 1 1 2 4 6 6 7 8 9 12 12 11 13 11 9 10 8 9 8 7 7 7 9 6 6
6 4 6 8 9 11 9 15 11 11 9 7 7 8 11 10 8 8 9 9 7 3 3 3 4 2 2 2 5 9 9 12 15 15 12 9 9 8 9 8 10 9 7 8 8 9 6 7 6
7 1 7 9 11 15 12 13 9 12 12 10 7 6 7 8 7 7 8 8 4 2 2 3 3 3 1 1 4 6 10 13 13 12 12 9 8 7 7 6 8 6 6 7 8 7 7 6 6
9 8 10 11 12 18 18 20 17 8 10 12 8 7 5 6 6 5 5 4 5 5 4 3 4 2 1 2 4 6 11 15 15 14 12 8 4 4 7 8 6 5 5 7 9 6 7 7 7
13 14 13 16 16 17 10 14 11 8 6 6 7 7 6 8 6 6 6 6 6 5 2 2 3 3 2 4 6 7 9 11 7 6 7 4 0 1 4 7 5 4 7 8 8 7 7 8 8
8 12 12 12 12 8 3 10 4 8 8 7 5 5 7 8 7 8 8 9 9 9 7 4 1 2 3 6 8 8 7 5 3 2 2 1 1 1 4 3 5 5 6 6 5 6 7 7 7
5 5 2 5 10 11 10 7 3 8 8 7 7 6 9 7 6 7 8 10 10 9 9 7 6 9 9 7 7 7 6 5 4 3 3 3 2 2 2 2 5 6 4 3 4 4 6 6 7
2 6 2 3 6 9 11 9 10 11 11 9 7 6 7 5 5 5 7 9 9 9 9 8 8 7 7 8 6 4 4 4 5 5 6 4 2 1 1 1 4 4 4 3 4 4 4 5 7
10 8 7 5 6 7 10 4 3 1 6 7 4 2 4 2 3 3 5 6 7 7 8 6 3 3 5 5 5 6 5 5 6 5 3 2 2 3 3 3 4 4 4 4 4 4 5 6 7
6 6 7 8 11 8 9 6 6 4 7 7 5 3 2 3 5 6 5 5 5 4 5 5 5 4 4 4 3 6 7 7 7 7 5 5 5 4 3 1 3 4 3 3 4 5 5 6 7
Wind_Direction
212 210 227 238 238 234 90 92 83 142 147 107 95 52 47 35 19 67 119 128 139 145 138 155 154 155 152 146 140 132 131 141 147 148 147 146 146 142 135 129 118 109 103 102 110 134 126 113 105
211 202 229 243 260 235 92 99 121 123 111 120 104 86 69 69 64 115 133 133 143 146 148 151 149 154 151 148 144 135 130 137 142 145 148 149 151 148 141 135 124 117 111 109 108 115 134 130 123
226 230 260 259 270 355 66 132 114 120 132 134 108 58 56 79 110 125 121 138 141 144 148 129 147 154 152 151 148 143 140 140 142 147 152 156 157 153 141 131 128 120 109 99 104 106 128 145 140
222 219 236 254 252 53 24 143 150 148 141 154 143 111 89 86 118 120 130 140 141 143 148 119 146 149 149 154 157 150 146 145 146 152 155 161 163 157 148 147 136 122 120 109 102 118 139 150 141
229 247 243 239 231 148 140 158 172 164 147 153 163 114 106 112 114 130 140 147 145 149 140 126 141 144 144 155 165 157 154 150 148 147 152 164 164 157 153 153 137 121 119 124 119 117 136 145 144
222 243 249 237 201 175 165 180 197 181 155 152 158 131 124 131 138 143 147 150 153 152 146 129 143 148 147 155 167 155 149 152 153 154 157 170 171 171 173 164 160 156 161 170 158 201 171 149 162
247 236 253 265 246 209 185 197 211 192 184 173 163 148 123 151 146 145 143 151 151 146 151 133 148 151 153 159 169 172 163 166 163 168 172 181 188 194 199 197 197 196 200 216 229 230 227 199 193
263 261 250 243 237 227 152 199 215 197 173 139 176 163 148 154 149 146 146 153 155 157 155 158 156 159 168 167 177 185 170 175 177 184 185 182 200 212 217 219 215 228 231 224 236 238 233 228 226
234 245 241 232 230 234 181 200 183 154 147 172 165 37 114 146 155 153 157 165 170 170 171 177 163 161 179 175 157 174 163 173 182 191 188 194 215 205 209 199 171 221 244 240 244 243 235 234 229
225 236 245 31 339 302 236 210 162 175 174 173 162 133 134 151 160 165 171 176 180 180 176 188 176 179 185 183 162 192 180 192 194 201 194 210 221 250 303 223 174 225 243 248 249 249 247 242 239
228 248 255 171 290 305 261 203 176 196 189 180 166 145 151 160 168 175 179 181 181 184 181 188 183 193 195 192 189 206 192 201 197 208 222 233 233 226 229 231 206 210 213 227 218 217 229 240 272
232 235 248 260 285 289 272 203 191 205 81 117 148 152 161 170 175 181 184 187 181 186 190 184 189 191 205 208 209 225 214 210 218 209 214 224 221 221 237 280 283 254 222 213 217 211 229 252 259
235 231 225 251 266 275 269 223 204 198 115 110 140 158 172 180 181 182 183 188 185 188 194 186 196 195 197 214 229 237 236 218 227 226 223 229 228 225 219 218 230 247 279 252 225 227 236 246 253
229 239 240 247 269 253 238 202 214 180 160 159 164 171 181 184 186 183 186 187 190 194 195 193 196 197 204 213 225 237 245 248 242 240 231 228 241 247 248 227 240 230 261 277 287 278 269 269 273
233 233 226 224 224 208 239 211 212 150 148 172 184 174 181 188 190 191 191 193 197 202 196 199 199 199 205 214 222 232 241 247 252 246 235 232 235 245 256 257 266 264 253 268 278 264 267 265 251
222 230 228 199 201 179 232 225 185 132 161 155 161 166 171 183 195 196 195 200 202 210 200 206 203 206 211 216 223 235 247 253 252 252 240 231 240 244 249 254 244 246 243 249 253 263 260 258 288
213 225 223 187 191 211 223 240 114 52 19 97 106 142 150 164 188 198 204 208 206 204 195 209 211 210 211 219 225 228 239 271 282 279 270 252 254 255 257 271 276 283 258 250 255 251 266 287 281
212 227 225 226 162 221 228 241 169 51 18 82 100 120 138 153 160 180 200 211 195 190 189 203 212 213 212 223 247 277 1 12 346 325 300 277 257 254 258 268 269 262 258 247 257 250 255 272 293
314 264 230 219 99 232 229 240 249 350 314 119 134 150 151 163 157 157 163 179 164 168 184 194 197 194 196 209 225 204 138 166 238 265 272 261 255 250 243 249 258 256 255 253 255 251 260 275 285
240 249 244 201 195 239 186 205 203 250 198 66 118 154 161 158 155 154 141 127 119 124 138 180 221 205 213 226 221 216 203 228 230 227 237 228 235 236 229 234 250 258 260 247 253 252 251 258 267
222 239 238 233 205 241 244 219 185 162 157 132 116 115 107 100 98 98 101 106 103 97 123 216 358 336 290 270 265 255 228 237 239 249 254 239 221 210 217 222 241 258 260 260 255 252 253 252 255
241 228 272 255 255 242 221 256 191 166 166 151 130 114 99 87 83 89 88 69 53 30 2 26 40 35 348 292 237 227 227 235 234 234 239 248 250 229 225 224 231 242 255 255 243 242 248 251 252
274 245 255 262 264 268 252 256 233 173 183 153 132 114 98 97 94 100 105 104 88 75 60 87 114 104 79 270 270 253 257 254 251 253 243 238 258 268 252 244 239 232 247 260 255 248 246 247 256
257 239 240 249 253 253 246 252 256 202 192 141 134 123 118 104 106 98 82 101 113 125 149 164 156 103 45 300 290 278 275 267 255 247 238 230 249 294 292 266 246 239 238 248 255 250 251 250 246
229 235 239 230 224 239 237 241 257 85 84 118 131 118 99 77 65 61 50 38 35 47 69 193 236 286 296 308 329 318 304 286 260 236 224 227 322 327 327 295 276 246 246 246 249 253 250 250 251
239 250 253 262 264 265 171 240 248 99 107 117 112 109 101 84 65 56 42 37 25 21 13 7 36 7 9 345 1 356 351 325 288 225 191 124 78 64 243 251 305 267 248 246 242 249 252 256 256
224 239 292 283 267 268 259 262 222 150 140 145 139 131 95 75 65 58 52 45 34 29 28 19 27 27 19 23 21 11 15 349 338 14 81 93 94 145 212 49 283 274 268 300 295 263 255 258 264
41 122 139 235 274 260 234 223 231 184 176 165 146 108 93 97 70 38 44 45 39 34 43 36 41 32 12 1 9 36 39 17 36 48 58 64 72 62 229 250 296 296 304 297 279 261 260 269 275
167 207 214 207 227 270 282 252 53 144 134 138 119 82 77 75 69 43 33 33 45 43 39 29 49 30 351 347 359 6 47 76 84 79 65 71 65 63 45 14 311 301 309 304 290 295 296 285 286
288 267 255 246 247 240 276 293 75 84 109 128 123 79 54 15 25 19 8 6 17 26 36 15 0 11 2 343 33 29 24 57 87 104 113 103 97 97 104 256 285 298 306 316 310 300 312 310 305